Flag for Germany Weather past 2 weeks in Freital, Saxony, Germany

Now
47 °F

Overcast.


Feels Like: 45 °F
Forecast: 41 / 54 °F
Wind: 3 mph from South

Location: Dresden-Klotzsche

Current Time: Oct 26, 2014 at 6:25:31 AM

Latest Report: Oct 26, 2014 at 6:00 AM


Visibility: 8 mi

Pressure: 30.30 "Hg

Humidity: 87%

Dew point: 43 °F

Location of FreitalLocation

Historic Weather in Freital — Graph

°F

Freital temperature yesterday

Maximum temperature yesterday: 51 °F (at 1:00 PM)
Minimum temperature yesterday: 36 °F (at 7:00 AM)
Average temperature yesterday: 44 °F

Past Weeks' High & Low Weather Summary

 TemperatureHumidityPressure
High70 °F (Oct 19, 4:00 PM)99% (Oct 22, 10:00 PM)30.30 "Hg (Oct 22, 10:00 PM)
Low36 °F (Oct 25, 7:00 AM)55% (Oct 21, 3:00 PM)29.47 "Hg (Oct 21, 11:00 PM)
Average55 °F85%29.95 "Hg
* Reported Oct 11 6:00 AM — Oct 26 5:00 AM, Freital, Weather by CustomWeather, © 2014

Note: Actual official high and low records may vary slightly from our data, if they occured in-between our weather recording intervals... More about our weather records

Advertising

Freital weather history for previous 24 hours

 ConditionsComfort  
Time TempWeatherWind HumidityBarometerVisibility
5:00 AM
Oct 26
47 °FOvercast.3 mph87%30.30 "Hg7 mi
3:00 AM47 °FOvercast.2 mph86%30.28 "Hg9 mi
2:00 AM47 °FOvercast.3 mph84%30.27 "Hg7 mi
2:00 AM47 °FOvercast.5 mph84%30.26 "Hg7 mi
1:00 AM46 °FLow clouds.5 mph84%30.26 "Hg6 mi
12:00 AM46 °FOvercast.5 mph88%30.25 "Hg4 mi
10:00 PM
Oct 25
46 °FOvercast.5 mph84%30.24 "Hg9 mi
9:00 PM46 °FOvercast.5 mph84%30.22 "Hg9 mi
8:00 PM45 °FOvercast.5 mph84%30.21 "Hg9 mi
7:00 PM46 °FOvercast.5 mph83%30.20 "Hg11 mi
6:00 PM46 °FOvercast.5 mph82%30.19 "Hg11 mi
5:00 PM47 °FOvercast.6 mph79%30.18 "Hg14 mi
4:00 PM49 °FOvercast.7 mph77%30.16 "Hg12 mi
3:00 PM49 °FOvercast.7 mph77%30.15 "Hg12 mi
2:00 PM51 °FOvercast.7 mph73%30.15 "Hg11 mi
1:00 PM51 °FPartly sunny.6 mph75%30.16 "Hg8 mi
12:00 PM50 °FPartly sunny.5 mph78%30.16 "Hg7 mi
11:00 AM47 °FPartly sunny.5 mph81%30.16 "Hg6 mi
10:00 AM43 °FPartly sunny.5 mph90%30.16 "Hg5 mi
9:00 AM39 °FScattered clouds.5 mph95%30.17 "Hg5 mi
8:00 AM36 °FFog.3 mph97%30.17 "Hg3 mi
7:00 AM36 °FFog.3 mph97%30.16 "Hg4 mi
6:00 AM37 °FClear.3 mph96%30.17 "Hg6 mi
Weather by CustomWeather, © 2014

See weather overviewHow to use our weather pages